Powrót do katalogu

YAOGAN-36 02B

AktywnyMilitariaVLEO
NORAD 54043·PAYLOAD·🇨🇳 China

Wystrzelony Oct 14, 2022 z Xichang Satellite Launch Center

Loading…

Następne Przeloty (najbliższe 24 godziny)

TLE

ŚwieżeSource: Space-Track

Epoka: Sep 14, 2026, 10:16 UTC

1 54043U 22133B   26257.42796162  .00008577  00000-0  25336-3 0  9995
2 54043  34.9956 260.0780 0004889 201.1692 158.8825 15.34174634218553

Śledź YAOGAN-36 02B w czasie rzeczywistym z AllMySat

Download on the App Store